This is the latest recevied weather packets stored in our database for station/object IZ3LSV-13. If no packets are shown the sender has not sent any weather packets the latest 10 day(s).
| Time | Temp. | Humidity | Pressure | Rain* | Wind** | Luminosity | Snow |
|---|---|---|---|---|---|---|---|
| 1777454687 | 24.44° C | - | 1113.4 hPa | 0 mm | - | - | - |
| 1777454381 | 24.44° C | - | 1113.3 hPa | 0 mm | - | - | - |
| 1777454076 | 23.89° C | - | 1113.4 hPa | 0 mm | - | - | - |
| 1777453770 | 23.89° C | - | 1113.3 hPa | 0 mm | - | - | - |
| 1777453465 | 23.33° C | - | 1113.4 hPa | 0 mm | - | - | - |
| 1777453159 | 23.33° C | - | 1113.3 hPa | 0 mm | - | - | - |
| 1777452854 | 23.33° C | - | 1113.2 hPa | 0 mm | - | - | - |
| 1777452549 | 23.33° C | - | 1113.4 hPa | 0 mm | - | - | - |
| 1777452243 | 22.78° C | - | 1113.5 hPa | 0 mm | - | - | - |
| 1777451938 | 22.78° C | - | 1113.4 hPa | 0 mm | - | - | - |
| 1777451632 | 22.78° C | - | 1113.2 hPa | 0 mm | - | - | - |
| 1777451327 | 22.78° C | - | 1113.3 hPa | 0 mm | - | - | - |
| 1777451021 | 23.33° C | - | 1113.3 hPa | 0 mm | - | - | - |
| 1777450716 | 23.33° C | - | 1113.3 hPa | 0 mm | - | - | - |
| 1777450411 | 23.33° C | - | 1113.3 hPa | 0 mm | - | - | - |
| 1777450105 | 23.89° C | - | 1113.4 hPa | 0 mm | - | - | - |
| 1777449800 | 24.44° C | - | 1113.1 hPa | 0 mm | - | - | - |
| 1777449494 | 24.44° C | - | 1113.1 hPa | 0 mm | - | - | - |
| 1777449189 | 24.44° C | - | 1113 hPa | 0 mm | - | - | - |
| 1777448883 | 24.44° C | - | 1112.8 hPa | 0 mm | - | - | - |
| 1777448578 | 24.44° C | - | 1112.9 hPa | 0 mm | - | - | - |
| 1777448272 | 23.89° C | - | 1112.8 hPa | 0 mm | - | - | - |
| 1777447967 | 23.89° C | - | 1112.8 hPa | 0 mm | - | - | - |
| 1777447662 | 23.33° C | - | 1112.7 hPa | 0 mm | - | - | - |
| 1777447356 | 23.33° C | - | 1112.8 hPa | 0 mm | - | - | - |
* Rain latest hour (hover to see other rain measurements)
** Current wind speed in m/s (hover to see current wind gust speed)